Location: Wavehorne
(51.0500°N, 0.8333°E)
Time: 20:36:04
(UTC+00:00)

Cosmos 1842 Rocket - Pass Details

Date: 20 June 2021
Orbit: 606 x 633 km, 82.5° (Epoch: 23 July)

Event Time Altitude Azimuth Distance (km) Brightness Sun altitude
Rises 01:23:38 0° 346° (NNW) 2,878 8.0 -13.2°
Reaches altitude 10° 01:25:53 10° 343° (NNW) 1,970 7.0 -13.1°
Maximum altitude 01:30:10 61° 264° (W) 696 3.7 -12.8°
Enters shadow 01:33:13 18° 188° (S) 1,487 4.9 -12.6°
